Wind_Speed
10 9 8 6 4 1 1 5 4 3 5 7 8 8 7 5 2 4 3 5 6 5 5 5 5 5 5 5 5 5 6 7 8 8 7 7 7 8 8 8 9 10 11 13 14 15 14 11 8
9 8 6 5 3 2 2 5 5 4 4 5 7 8 7 6 5 4 4 5 6 6 6 6 6 6 7 7 7 6 6 6 6 6 6 7 7 7 7 8 9 10 11 13 14 14 14 12 9
8 6 4 2 2 2 3 4 6 7 5 5 6 6 5 6 6 6 6 7 7 7 7 7 7 7 8 8 8 7 7 6 6 7 7 7 7 7 7 8 9 10 12 12 13 13 13 12 10
8 6 4 4 4 2 5 6 6 8 8 8 8 6 5 5 7 7 7 9 9 9 9 9 9 9 9 9 8 8 8 8 9 9 10 10 10 10 10 10 10 11 12 12 12 12 12 11 11
9 7 5 7 9 7 8 11 9 8 9 10 9 8 5 5 7 7 8 9 9 9 9 9 9 9 9 9 9 10 10 11 12 13 13 13 13 13 13 13 13 13 13 13 13 13 12 12 12
11 9 7 8 10 9 11 15 15 11 10 10 9 7 5 4 6 8 8 9 9 9 9 9 9 10 10 11 12 12 13 14 15 16 16 16 16 17 17 17 16 16 16 16 16 15 15 15 14
14 12 9 8 9 8 12 17 19 17 14 12 10 8 6 5 6 8 9 9 9 10 10 11 11 12 13 14 15 16 17 17 18 19 19 19 19 19 20 20 20 20 20 19 19 19 19 19 19
16 16 12 11 11 7 10 15 18 19 17 14 14 13 12 10 9 9 11 12 12 13 14 15 16 17 18 18 18 19 19 20 20 20 21 21 21 22 22 23 23 23 23 23 23 23 23 23 23
18 18 17 16 16 12 10 13 16 18 18 16 15 16 16 15 12 11 12 14 15 16 18 20 22 22 22 21 21 20 20 21 21 21 21 22 22 23 24 25 25 26 26 26 26 27 27 27 27
19 19 21 23 23 19 15 15 17 19 19 18 19 20 20 19 16 13 13 16 21 22 23 24 26 25 24 23 22 21 21 22 21 21 21 21 22 22 23 24 26 27 27 27 28 28 28 29 29
20 20 24 28 27 25 23 20 21 22 22 21 22 23 24 24 21 20 19 21 26 28 28 28 28 27 26 24 23 23 23 23 22 21 21 21 20 21 22 22 24 25 26 27 28 28 29 29 30
21 20 25 30 31 30 28 25 23 25 27 27 27 28 28 28 27 27 28 27 28 32 33 31 30 28 27 25 24 25 25 24 22 21 20 20 20 21 21 22 21 22 24 25 26 27 28 29 30
20 20 23 27 30 31 30 28 27 27 29 31 32 32 33 33 33 32 33 31 33 35 35 35 33 30 29 27 26 25 25 25 23 21 21 22 22 23 22 22 21 22 23 24 25 25 25 25 25
21 21 20 22 26 29 31 31 30 28 30 31 32 33 34 35 36 37 37 38 38 39 39 37 36 33 32 29 28 27 26 24 23 22 23 23 24 24 23 23 22 22 22 23 24 24 25 25 23
21 21 19 20 22 24 28 29 27 25 27 28 30 31 33 36 38 39 40 41 42 44 44 43 39 37 36 34 30 27 25 24 24 23 23 23 24 25 24 23 23 23 23 23 24 24 23 22 21
21 20 18 16 16 17 23 23 19 22 24 26 29 31 35 37 39 41 42 43 47 47 46 44 41 38 35 35 32 27 25 24 24 23 22 23 24 24 24 23 22 23 23 23 23 22 21 20 18
19 17 14 12 11 12 15 13 14 19 22 26 29 33 36 39 41 44 46 47 50 49 49 51 40 31 30 33 30 26 25 25 24 22 23 24 24 24 24 23 22 22 22 21 21 20 19 16 14
15 14 11 11 11 11 13 15 19 23 26 29 31 34 37 41 43 45 46 49 49 51 55 53 41 30 24 27 27 26 25 23 22 22 23 24 24 24 24 23 22 20 19 18 18 17 16 14 12
11 13 14 14 13 12 14 19 23 26 28 31 35 38 40 42 43 44 46 47 49 49 49 46 43 34 21 17 21 24 24 23 22 22 23 24 24 23 23 23 21 19 18 16 16 15 15 14 13
11 15 18 20 20 19 21 23 27 29 31 33 35 38 40 42 43 43 43 45 45 44 42 40 36 28 20 19 18 20 21 21 23 23 24 24 24 24 23 22 20 19 18 17 16 17 17 16 15
11 14 16 19 24 26 27 29 31 33 34 34 34 34 34 35 37 39 40 41 41 41 41 38 33 28 22 21 20 21 21 22 23 23 23 23 23 23 23 22 21 20 20 19 19 19 19 19 17
9 12 15 14 17 20 23 28 31 32 34 35 33 32 31 32 35 37 38 39 40 40 39 37 33 29 26 22 20 21 20 21 22 22 22 23 23 23 23 23 23 23 23 22 22 21 21 21 21
8 9 11 12 12 13 15 19 21 25 28 31 31 30 30 31 33 36 38 40 41 42 40 38 35 31 29 28 26 24 24 23 23 23 24 24 25 25 25 26 26 26 26 26 25 24 23 24 24
9 9 8 8 9 10 13 15 18 22 22 23 25 26 28 30 34 37 40 42 44 45 44 41 39 36 35 34 33 32 31 30 29 29 29 29 28 28 28 29 30 30 30 29 28 27 26 26 27
8 8 7 6 9 12 16 19 21 23 22 21 21 22 25 29 33 38 41 44 46 47 47 46 45 43 42 40 39 39 38 38 37 37 36 35 34 33 33 33 33 33 33 34 33 31 30 30 29
8 10 11 12 15 18 20 21 23 26 26 27 28 30 32 35 39 42 45 47 48 49 49 48 47 47 46 46 46 45 44 44 44 43 43 43 42 41 39 38 36 36 37 37 38 36 35 34 33
12 13 15 16 18 20 22 22 24 26 29 31 33 35 38 42 45 48 50 52 53 54 54 53 52 51 50 50 51 51 51 50 50 49 49 48 48 47 47 46 44 42 41 42 42 41 40 38 37
16 17 18 19 20 22 24 26 29 30 33 35 37 40 43 47 50 53 56 58 59 61 61 61 60 59 57 55 55 55 55 55 55 54 54 53 53 53 52 53 52 50 48 47 46 45 44 42 41
15 17 18 19 22 24 28 30 32 35 37 39 42 45 47 50 53 55 58 60 63 65 66 68 68 68 66 65 63 62 61 60 60 59 59 58 58 57 57 57 58 57 56 54 52 50 48 47 45
18 18 18 20 22 25 29 33 36 39 41 43 46 48 51 53 56 58 60 62 65 68 70 72 74 75 75 74 72 70 68 66 64 63 63 63 63 63 62 62 62 62 61 60 58 56 53 51 49
Wind_Direction
129 131 136 138 142 155 347 53 60 321 323 328 316 318 345 356 313 248 228 215 224 226 230 236 246 256 265 277 293 312 328 336 343 349 351 351 352 352 352 351 352 352 351 349 348 349 350 349 345
140 144 147 145 172 288 348 24 15 339 341 307 292 299 323 331 317 289 261 245 240 238 240 245 250 255 263 274 285 297 309 318 326 333 335 335 336 335 334 335 337 339 341 342 343 343 346 348 347
163 167 159 169 215 329 340 349 334 330 338 308 288 290 302 302 299 287 278 265 256 252 251 256 260 262 265 270 276 283 289 295 303 308 312 313 313 312 311 314 318 324 329 334 337 339 343 345 345
191 198 215 255 257 307 328 311 302 307 318 314 303 294 291 290 286 279 275 272 265 258 256 259 260 261 262 264 267 273 278 285 291 294 295 295 295 294 294 296 301 307 314 320 325 328 332 335 337
205 211 231 276 288 307 312 306 289 276 299 309 307 295 289 285 283 282 278 275 271 266 261 259 258 258 259 262 265 270 276 281 285 287 288 287 285 284 283 285 288 293 299 304 309 311 314 317 319
213 214 230 272 284 296 315 309 299 284 289 302 303 298 289 288 290 287 280 274 271 267 262 258 260 263 266 268 271 276 279 281 282 282 282 282 281 280 279 279 280 283 287 291 294 296 298 300 302
214 210 220 248 264 300 322 310 303 295 293 296 305 300 290 288 280 279 275 271 268 267 266 267 269 271 273 275 278 280 281 281 281 280 279 278 277 277 277 277 277 279 281 283 285 287 289 289 290
221 209 211 230 245 278 310 306 302 302 306 302 304 303 294 285 268 265 267 269 269 273 275 277 279 280 280 281 282 283 283 282 281 280 279 277 276 275 274 274 275 276 278 279 280 281 282 283 283
231 217 213 225 235 246 270 288 291 292 294 301 301 299 301 294 279 262 266 277 278 279 281 282 283 283 283 284 286 287 287 286 284 283 282 280 278 276 275 274 274 275 277 278 278 279 279 280 281
239 224 218 231 239 241 250 262 273 279 285 292 297 295 301 301 295 279 273 282 283 282 282 283 283 283 284 286 289 290 292 292 290 288 287 285 283 281 278 277 275 275 276 276 277 279 280 280 281
245 230 223 231 239 244 248 253 264 276 284 290 294 298 299 299 296 291 284 284 287 284 283 282 281 281 283 287 292 295 297 298 295 291 289 289 287 286 283 281 279 277 276 275 275 277 279 280 279
255 242 233 235 241 246 251 254 258 269 277 284 289 293 296 297 296 295 292 290 286 286 280 276 277 279 281 286 291 296 298 297 294 291 289 288 288 287 284 282 280 280 279 278 278 278 279 279 278
263 256 248 249 250 253 256 259 261 263 271 278 283 287 290 292 292 292 291 289 288 285 279 273 274 275 276 279 285 290 291 291 289 288 288 287 287 287 286 285 280 276 275 276 277 277 278 278 279
262 263 261 261 259 257 258 259 260 262 267 272 277 282 285 286 287 288 289 288 287 284 278 270 270 269 268 268 272 277 281 281 281 281 282 284 285 284 282 283 279 275 272 271 270 271 273 275 276
263 264 263 261 259 258 258 258 261 264 266 270 274 279 281 282 282 285 287 288 288 285 281 275 268 258 258 260 259 265 270 272 275 278 280 282 283 284 283 282 279 276 273 270 268 268 270 270 271
261 261 257 257 259 256 256 260 261 259 262 268 271 276 278 281 284 286 288 290 292 290 284 281 274 258 254 255 250 255 263 270 275 279 285 287 287 286 284 282 279 274 270 268 267 267 266 265 266
260 253 244 231 235 236 247 250 248 254 260 265 270 274 278 282 285 286 289 291 294 293 295 295 290 268 254 250 245 251 259 265 274 283 289 290 289 288 285 282 279 274 269 266 263 262 260 258 256
248 245 228 218 226 234 234 233 242 250 255 262 267 271 275 279 282 286 291 295 297 298 303 303 298 287 258 247 240 245 251 261 272 282 287 288 289 288 286 284 280 273 266 260 256 251 248 245 243
247 238 230 224 225 231 231 233 237 243 251 259 265 270 274 278 281 286 291 297 300 303 307 309 308 302 284 249 238 241 253 268 275 279 283 285 285 283 282 281 276 267 257 250 246 244 241 239 237
253 246 238 228 228 231 232 234 238 244 251 259 266 270 275 280 284 288 291 296 301 305 309 311 314 312 290 271 264 268 276 278 277 278 281 282 279 277 276 274 269 260 250 243 243 243 241 238 236
255 255 253 241 234 239 244 248 251 255 260 265 269 272 274 280 286 290 292 296 300 305 309 312 313 312 306 295 286 283 283 282 278 274 275 275 274 272 271 266 259 252 247 245 245 245 245 244 241
269 263 266 260 249 247 253 262 264 268 268 270 272 274 277 283 287 289 292 296 300 304 308 310 311 307 304 302 294 289 290 289 282 275 270 269 268 267 264 259 253 248 247 247 248 250 251 249 249
321 298 286 276 268 264 272 278 286 290 280 274 272 273 276 281 286 289 292 295 298 303 307 308 310 307 304 303 299 294 291 288 284 277 272 268 264 260 257 255 251 248 247 248 249 250 250 250 252
332 322 306 288 286 288 289 298 304 309 302 287 274 275 278 283 287 289 292 296 299 303 306 307 307 306 303 301 297 293 289 285 281 277 273 268 263 259 255 253 252 251 249 249 250 251 251 251 253
333 332 321 303 308 311 308 310 313 318 320 315 310 305 298 295 295 295 296 298 301 303 306 306 306 304 302 298 294 290 287 283 279 275 273 268 264 259 255 252 251 252 252 251 251 252 252 252 253
327 328 329 332 332 327 322 321 319 316 315 314 313 310 306 302 300 299 300 300 301 301 302 302 301 299 297 294 292 288 285 281 278 275 271 268 265 262 258 254 250 250 252 253 252 252 252 252 253
313 316 320 322 324 324 325 324 318 316 316 315 313 311 309 306 305 304 304 303 303 302 300 299 297 295 292 290 287 285 282 279 276 273 270 267 265 262 260 257 253 250 249 250 251 251 251 252 253
313 310 311 316 317 320 320 322 322 321 320 318 316 314 312 310 308 307 306 306 305 303 302 300 298 295 293 289 286 282 279 276 274 271 269 266 263 261 259 258 255 252 250 249 249 250 251 252 252
310 310 306 309 312 317 320 322 323 323 322 320 319 316 314 312 310 309 308 307 306 304 303 302 301 299 296 293 289 285 280 275 271 268 265 263 261 259 257 256 255 254 252 250 249 248 250 251 252
310 312 314 313 315 317 320 321 324 323 323 322 321 319 317 315 313 311 310 308 306 305 304 302 301 299 297 295 292 289 285 280 275 270 265 261 259 257 255 254 253 252 252 251 250 249 249 249 250
Height
5931 5930 5930 5930 5931 5930 5928 5928 5928 5928 5928 5927 5925 5924 5923 5923 5923 5923 5921 5918 5917 5916 5915 5914 5914 5913 5913 5912 5912 5911 5910 5910 5909 5909 5908 5907 5906 5905 5904 5903 5902 5901 5900 5898 5897 5895 5894 5892 5891
5931 5930 5930 5930 5930 5929 5928 5927 5925 5925 5927 5927 5925 5924 5924 5923 5922 5921 5919 5918 5917 5915 5914 5914 5913 5913 5912 5911 5911 5910 5909 5909 5908 5907 5906 5906 5905 5904 5903 5902 5901 5900 5898 5897 5896 5894 5893 5892 5891
5931 5930 5930 5930 5929 5928 5926 5924 5923 5922 5924 5925 5925 5924 5924 5922 5921 5920 5919 5918 5917 5915 5914 5914 5913 5912 5911 5910 5910 5909 5908 5907 5906 5905 5905 5904 5903 5902 5901 5900 5899 5898 5897 5896 5895 5893 5892 5891 5890
5930 5930 5930 5929 5927 5925 5924 5922 5920 5920 5922 5922 5923 5923 5922 5921 5920 5919 5918 5917 5916 5914 5914 5913 5912 5911 5910 5909 5908 5907 5906 5905 5904 5903 5902 5901 5900 5900 5899 5898 5897 5896 5896 5895 5893 5892 5891 5890 5889
5929 5930 5929 5927 5925 5923 5921 5920 5918 5917 5919 5919 5920 5920 5920 5919 5917 5917 5916 5915 5914 5913 5912 5912 5911 5910 5909 5908 5907 5906 5905 5903 5902 5901 5899 5898 5897 5896 5896 5895 5894 5894 5893 5892 5892 5891 5889 5889 5888
5928 5928 5928 5926 5923 5921 5919 5918 5917 5915 5916 5916 5916 5917 5918 5917 5915 5915 5915 5914 5913 5912 5911 5910 5909 5908 5907 5906 5905 5903 5902 5900 5899 5897 5896 5894 5893 5892 5892 5891 5891 5890 5890 5889 5888 5888 5887 5886 5885
5926 5926 5926 5924 5922 5920 5919 5918 5915 5914 5913 5914 5914 5915 5915 5916 5915 5913 5912 5912 5912 5911 5910 5909 5907 5906 5905 5903 5902 5900 5898 5896 5894 5893 5891 5890 5889 5888 5887 5886 5886 5886 5885 5885 5884 5884 5883 5883 5882
5922 5924 5923 5921 5919 5918 5918 5917 5914 5912 5912 5913 5913 5913 5912 5914 5914 5912 5910 5910 5910 5908 5907 5906 5905 5903 5901 5899 5897 5895 5893 5891 5889 5888 5886 5885 5884 5883 5882 5881 5881 5881 5880 5880 5880 5879 5879 5878 5878
5919 5922 5920 5917 5915 5914 5914 5914 5912 5911 5910 5910 5911 5910 5910 5910 5911 5911 5910 5908 5907 5906 5904 5903 5901 5898 5896 5894 5892 5890 5888 5886 5884 5882 5881 5880 5879 5878 5877 5876 5875 5875 5875 5874 5874 5873 5873 5872 5872
5914 5917 5917 5914 5912 5911 5911 5911 5910 5908 5907 5907 5907 5907 5907 5907 5907 5908 5909 5907 5904 5902 5900 5898 5896 5893 5891 5888 5886 5885 5883 5881 5879 5877 5876 5874 5873 5872 5871 5870 5869 5869 5868 5868 5867 5867 5867 5866 5866
5909 5912 5912 5910 5908 5907 5907 5908 5907 5905 5904 5904 5904 5904 5904 5903 5903 5903 5905 5905 5902 5899 5896 5892 5890 5887 5885 5883 5881 5879 5877 5875 5874 5872 5870 5869 5868 5866 5865 5864 5863 5863 5862 5862 5861 5861 5861 5860 5859
5905 5907 5906 5905 5903 5903 5904 5905 5905 5903 5902 5901 5901 5901 5900 5899 5898 5897 5897 5898 5898 5894 5889 5885 5882 5880 5879 5878 5876 5874 5872 5870 5868 5866 5865 5863 5862 5860 5859 5858 5858 5857 5856 5855 5855 5855 5854 5854 5853
5901 5902 5902 5902 5901 5901 5901 5901 5901 5901 5899 5898 5897 5896 5896 5895 5893 5892 5890 5889 5888 5885 5881 5877 5873 5871 5871 5870 5869 5868 5866 5864 5862 5860 5858 5857 5855 5854 5853 5852 5852 5851 5850 5850 5849 5849 5848 5848 5847
5896 5896 5898 5898 5898 5897 5896 5896 5896 5897 5895 5893 5892 5891 5890 5889 5888 5885 5882 5880 5878 5875 5870 5867 5864 5862 5861 5861 5861 5861 5859 5857 5855 5854 5853 5851 5849 5848 5847 5846 5845 5845 5844 5844 5843 5843 5842 5842 5842
5891 5892 5893 5892 5891 5891 5891 5891 5892 5892 5890 5888 5887 5885 5884 5881 5880 5878 5876 5873 5870 5865 5859 5854 5850 5846 5847 5849 5851 5851 5850 5850 5849 5848 5846 5845 5843 5842 5841 5840 5839 5839 5838 5838 5837 5837 5837 5837 5837
5886 5886 5887 5887 5886 5885 5885 5886 5888 5886 5884 5883 5881 5880 5877 5875 5873 5872 5870 5867 5862 5856 5848 5842 5833 5827 5827 5834 5838 5840 5841 5840 5839 5838 5838 5838 5836 5835 5834 5833 5833 5832 5831 5831 5830 5831 5831 5832 5832
5881 5882 5882 5882 5881 5879 5879 5881 5881 5880 5879 5878 5876 5874 5872 5870 5868 5866 5863 5860 5854 5846 5837 5829 5820 5810 5810 5817 5823 5828 5830 5830 5830 5829 5830 5829 5829 5828 5827 5827 5826 5825 5825 5824 5824 5825 5825 5826 5827
5878 5877 5877 5877 5877 5876 5876 5875 5874 5874 5874 5873 5872 5870 5867 5864 5862 5859 5855 5851 5847 5840 5834 5825 5814 5805 5801 5806 5812 5819 5821 5822 5823 5823 5823 5822 5822 5821 5821 5820 5819 5818 5819 5819 5819 5819 5820 5821 5822
5873 5873 5872 5873 5873 5873 5871 5870 5869 5869 5869 5868 5867 5865 5861 5858 5856 5853 5850 5846 5841 5835 5827 5820 5816 5808 5804 5804 5807 5811 5815 5816 5817 5817 5817 5816 5815 5815 5814 5814 5813 5813 5813 5813 5814 5814 5815 5816 5818
5869 5869 5868 5869 5870 5869 5867 5866 5866 5865 5865 5865 5863 5860 5856 5852 5850 5848 5844 5840 5837 5832 5825 5821 5817 5812 5808 5806 5806 5808 5809 5810 5811 5811 5811 5810 5809 5809 5808 5808 5808 5808 5808 5808 5808 5809 5810 5811 5813
5866 5865 5864 5865 5866 5866 5865 5863 5862 5861 5861 5860 5858 5856 5852 5849 5845 5842 5839 5835 5832 5828 5824 5819 5816 5812 5808 5805 5804 5804 5804 5804 5804 5804 5804 5803 5803 5802 5802 5802 5802 5802 5803 5803 5803 5804 5805 5806 5807
5862 5862 5861 5861 5861 5862 5862 5859 5858 5857 5856 5854 5852 5849 5846 5843 5840 5836 5833 5829 5826 5823 5819 5815 5811 5807 5805 5802 5800 5799 5798 5797 5797 5796 5797 5796 5796 5795 5795 5795 5796 5796 5796 5797 5797 5798 5799 5800 5801
5861 5859 5858 5858 5858 5858 5857 5855 5853 5850 5848 5846 5844 5842 5840 5837 5834 5830 5826 5822 5818 5814 5811 5808 5804 5801 5797 5795 5793 5792 5791 5791 5790 5789 5789 5789 5788 5788 5788 5788 5788 5788 5789 5789 5790 5791 5791 5793 5794
5859 5858 5857 5856 5856 5856 5854 5852 5849 5844 5841 5838 5837 5835 5833 5830 5826 5822 5818 5813 5809 5804 5801 5798 5795 5792 5789 5787 5785 5784 5783 5782 5782 5781 5780 5780 5780 5780 5780 5780 5780 5780 5780 5781 5782 5782 5783 5785 5786
5858 5857 5856 5855 5854 5852 5850 5847 5846 5841 5837 5834 5832 5830 5827 5823 5819 5814 5809 5804 5798 5793 5790 5786 5783 5781 5779 5777 5775 5774 5773 5772 5771 5771 5770 5769 5769 5770 5770 5771 5771 5771 5771 5772 5772 5773 5775 5776 5778
5857 5856 5854 5852 5850 5848 5845 5843 5841 5836 5832 5829 5826 5823 5818 5814 5809 5804 5799 5793 5788 5783 5779 5776 5772 5769 5766 5764 5762 5760 5759 5758 5758 5757 5757 5756 5756 5757 5757 5759 5760 5761 5761 5762 5763 5764 5765 5766 5768
5855 5854 5852 5850 5848 5845 5842 5839 5835 5831 5826 5822 5818 5813 5808 5802 5797 5791 5785 5779 5774 5769 5764 5761 5758 5756 5753 5750 5746 5744 5743 5742 5741 5741 5741 5741 5741 5742 5742 5744 5746 5747 5749 5750 5751 5753 5754 5756 5758
5854 5852 5850 5848 5844 5841 5837 5833 5830 5825 5820 5815 5810 5804 5798 5792 5786 5779 5772 5765 5758 5751 5745 5741 5738 5736 5733 5731 5728 5726 5723 5721 5721 5721 5722 5722 5723 5724 5726 5727 5729 5731 5734 5736 5738 5740 5742 5745 5748
5852 5849 5847 5844 5840 5836 5832 5831 5826 5820 5815 5809 5803 5796 5790 5783 5776 5768 5760 5752 5744 5735 5727 5720 5714 5710 5708 5705 5704 5702 5700 5699 5698 5699 5699 5701 5702 5704 5706 5709 5711 5714 5717 5720 5723 5726 5729 5732 5736
5848 5846 5843 5841 5836 5832 5829 5827 5820 5814 5808 5802 5795 5788 5780 5772 5764 5756 5747 5739 5729 5720 5710 5702 5693 5687 5681 5677 5674 5672 5671 5670 5671 5672 5674 5676 5678 5681 5684 5687 5691 5694 5697 5701 5706 5710 5714 5718 5722